Location: Brachstadt
(48.6975°N, 10.6755°E)
Time: 08:34:34
(UTC+00:00)

USA 234 - Pass Details

Date: 18 September 2020
Orbit: 1102 x 1106 km, 123.0° (Epoch: 16 October)

Event Time Altitude Azimuth Distance (km) Brightness Sun altitude
Exits shadow 20:19:21 13° 56° (NE) 2,725 5.2 -27.7°
Maximum altitude 20:25:18 88° 329° (NNW) 1,110 3.1 -28.4°
Drops below altitude 10° 20:31:51 10° 239° (WSW) 2,960 5.7 -29.2°
Sets 20:34:20 0° 239° (WSW) 3,916 6.3 -29.5°
